www.pogodaiklimat.ru

Погода и климат >> Архив погоды >> Мадагаскар >> Фарафангана


ПОГОДА в Фарафангане

  • Прогноз погоды в Фарафангане
  • Монитор погоды в Фарафангане

АРХИВ ПОГОДЫ в Фарафангане

Время (UTC), дата Ветер
(напр.,м/с)
 
Видим.   Явления Облачность Т
(С)
Тd
(С)
f
(%)
Тe
(С)
Тes
(С)
Комфортность P
(гПа)
Po
(гПа)
Тmin
(С)
Tmax
(С)
R
(мм)
R24
(мм)
S
(см)
00 16.03 0 30 км 8/8 600 м
[Cu Sc]
1016.0 1015.3
03 16.03 0 30 км 8/8 600 м
[Cu Sc]
1015.7 1015.0
06 16.03 штиль 0 30 км 6/6 700 м
[Cu Sc]
1016.5 1015.8
09 16.03 0 40 км 5/5 700 м
[Cu med, cong]
1015.4 1014.7
12 16.03 0 40 км 5/5 700 м
[Cu Sc Ci sp]
1013.7 1013.0
15 16.03 0 30 км 6/6 600 м
[Cu Sc]
1014.3 1013.6
00 17.03 0 30 км 6/6 600 м
[Cu Sc]
1014.5 1013.8
03 17.03 0 30 км 6/6 600 м
[Cu Sc]
1014.3 1013.6
06 17.03 штиль 0 35 км 6/6 700 м
[Cu Sc Ci sp]
1014.8 1014.1
09 17.03 0 40 км 8/8 700 м
[Cu Sc Ci sp]
1013.9 1013.2
12 17.03 0 40 км 8/8 700 м
[Cu Sc Ci sp]
1013.4 1012.7
15 17.03 0 30 км 9/9 600 м
[Cu Sc]
1013.5 1012.8
00 18.03 0 30 км 6/6 600 м
[Cu Sc]
1014.5 1013.8
03 18.03 0 30 км 6/6 600 м
[Cu Sc]
1014.2 1013.5
06 18.03 С 5 35 км 6/5 600 м
[Cu Sc Ci sp]
1014.8 1014.1
12 18.03 0 40 км 9/9 700 м
[Cu Sc]
1013.6 1012.9
15 18.03 0 40 км 8/8 600 м
[Cu Sc]
1014.2 1013.5
00 19.03 0 30 км 8/8 600 м
[Cu Sc]
1014.9 1014.2
03 19.03 0 30 км 8/8 600 м
[Cu Sc]
1014.7 1014.0
06 19.03 С 3 35 км 8/8 700 м
[Cu Sc Ci sp]
1015.3 1014.6
09 19.03 0 40 км 5/5 700 м
[Cu Sc Ci sp]
1014.5 1013.8
12 19.03 СВ 3 30 км 6/5 600 м
[Cu Sc Ci sp]
1012.0 1011.3
15 19.03 С 1 30 км 6/6 500 м
[Cu Sc Ci sp]
1012.4 1011.7
00 20.03 штиль 0 30 км 4/1 600 м
[Cu Sc]
1012.7 1012.0
03 20.03 штиль 0 30 км 4/4 600 м
[Cu Sc]
1012.8 1012.1
06 20.03 С 3 30 км 3/3 600 м
[Cu Sc]
1013.7 1013.0
09 20.03 СВ 3 30 км 1/1 600 м
[Cu Sc]
1011.6 1010.9
12 20.03 СВ 2 35 км 5/5 600 м
[Cb cap]
1010.4 1009.7
15 20.03 С 2 25 км зарница 9/8 500 м
[Cb cap Ac trans]
1011.0 1010.3
00 21.03 штиль 0 25 км {дождь} 9/9 500 м
[Cu Sc]
1013.0 1012.3 1
03 21.03 штиль 0 25 км {дождь} 9/9 500 м
[Cu Sc]
1012.4 1011.7 1
06 21.03 штиль 0 40 км 8/8 600 м
[Cu Sc]
1013.7 1013.0 1
09 21.03 С 3 30 км 6/6 600 м
[Cu Sc]
1022.8 1012.1
12 21.03 СВ 2 30 км 9/8 600 м
[Cb cap Ac trans]
1011.5 1010.8
15 21.03 СВ 4 30 км осадки на расстоянии 9/9 600 м
[Cu Sc]
1012.3 1011.6
00 22.03 штиль 0 30 км {дождь} 9/9 500 м
[Cu Sc]
1013.5 1012.8 0.3
03 22.03 штиль 0 30 км {дождь} 9/9 500 м
[Cu Sc]
1013.2 1012.5 0.3
06 22.03 ЮВ 2 30 км 9/9 600 м
[Cu Sc]
1015.7 1015.0 0.3
09 22.03 штиль 0 30 км 1/1 600 м
[Cu Sc]
1013.4 1012.7
12 22.03 штиль 0 30 км 8/8 600 м
[Cb cap]
1013.0 1012.3
15 22.03 Ю 2 35 км 6/6 500 м
[Cu Sc]
1013.5 1012.8

 

Местоположение метеостанции Фарафангана (Мадагаскар): широта -22.80 долгота 47.83 высота над уровнем моря 6 м.

В архиве по умолчанию представлена погода в Фарафангане за последнюю неделю. Архивные данные за месяц целиком и за предыдущие месяцы, начиная с января 2011 года, Вы можете получить, выбрав интересующий диапазон дат из раскрывающегося списка и нажав кнопку "Ввод!".


*Определитесь, кто Вы:
робот инопланетянин человек

Внимание! Время в таблицах - всемирное. Для получения местного времени необходимо прибавить поправку, которая равна 3 ч.

Смотрите также архив погоды в соседних городах и на ближайших метеорологических станциях:

Погода в Манандзари (Мадагаскар) (145 км)
Погода в Фианаранцуа (Мадагаскар) (168 км)
Погода в Толанаро (Мадагаскар) (264 км)
Погода в Анцирабе (Мадагаскар) (342 км)
Погода в Мааноро (Мадагаскар) (345 км)
Погода в Раноайре (Мадагаскар) (393 км)
Погода в Тулиаре (Мадагаскар) (424 км)
Погода в Антананариву (Мадагаскар) (438 км)
Погода в Антананариву аэропорт (Мадагаскар) (446 км)
Погода в Мурундаве (Мадагаскар) (459 км)

Пояснения к столбцам:

Ветер - указаны скорость ветра в м/с - средняя за 10 мин, порывы в срок и между сроками (в фигурных скобках) и направление, откуда дует ветер: С - северный, СВ - северо-восточный, В - восточный, ЮВ - юго-восточный, Ю - южный, ЮЗ - юго-западный, З - западный, СЗ - северо-западный.
Видимость - горизонтальная дальность видимости в метрах или километрах. При видимости от 1 до 10 км при отсутствии осадков обычно наблюдается дымка, при ухудшении видимости до 1 км и менее - туман. В сухую погоду видимость может ухудшаться дымом, пылью или мглою.
Явления - указаны атмосферные явления, наблюдавшиеся в срок или в последний час перед сроком; фигурными скобками обозначены явления, наблюдавшиеся между сроками (за 1-3 часа до срока); квадратными скобками обозначены град или гололедные отложения с указанием их диаметра в мм.
Облачность - указаны через наклонную черту общая и нижняя облачность в баллах и высота нижней границы облаков в метрах; квадратными скобками обозначены формы облаков: Ci - перистые, Cs - перисто-слоистые, Cc - перисто-кучевые, Ac - высококучевые, As - высокослоистые, Sc - слоисто-кучевые, Ns - слоисто-дождевые, Cu - кучевые, Cb - кучево-дождевые. Подробнее классификацию облаков см. в Атласе облаков (PDF).
T - Температура воздуха - температура, измеренная на высоте 2 м над землей.
Td - Температура точки росы - температура, при понижении до которой содержащийся в воздухе водяной пар достигнет насыщения.
f - Относительная влажность воздуха - влажноcть воздуха, измеренная на высоте 2 м над землей.
Te - Эффективная температура - температура, которую ощущает одетый по сезону человек в тени. Характеристика душности погоды. При расчете учитывается влияние влажности воздуха и скорости ветра на теплоощущения человека.
Tes - Эффективная температура на солнце - температура, которую ощущает человек, с поправкой на солнечный нагрев. Характеристика знойности погоды. Зависит от высоты солнца над горизонтом, облачности и скорости ветра. Ночью, в пасмурную погоду, а также при ветре 12 м/с и более поправка равна нулю.
P - Атмосферное давление - приведенное к уровню моря атмосферное давление.
Po - Атмосферное давление - измеренное на уровне метеостанции атмосферное давление.
Tmin - Минимальная температура - минимум температуры воздуха на высоте 2 м над землей.
Tmax - Максимальная температура - максимум температуры воздуха на высоте 2 м над землей.
R - Количество осадков - Количество выпавших осадков за период времени, мм. При наведении курсора мыши на число - период времени, за который выпало указанное количество осадков.
R24 - Количество осадков - Количество выпавших осадков за 24 часа, мм.
S - Снежный покров - Высота снежного покрова, см. При наведении курсора мыши на число - состояние снежного покрова и степень покрытия местности в баллах.